Regional Weather Roundup
Issued by NWS Cleveland, OH

Home | Current Version | Previous Version | Text Only | Print | Product List | Glossary Off
Versions: 1 2 3 4 5 6 7 8 9 10 11 12 13 14 15 16 17 18 19 20 21 22 23 24 25 26 27 28 29 30 31 32 33 34 35 36 37 38 39 40 41 42 43 44 45 46 47 48 49 50

000
ASUS41 KCLE 090912
RWRCLE
OHIO REGIONAL WEATHER ROUNDUP
NATIONAL WEATHER SERVICE WILMINGTON, OH
400 AM EST TUE FEB 09 2016

NOTE: "FAIR" INDICATES FEW OR NO CLOUDS BELOW 12,000 FEET WITH NO
SIGNIFICANT WEATHER AND/OR OBSTRUCTIONS TO VISIBILITY.

OHZ001>008-015>018-024>027-034-035-043-044-091000-
   NORTHWEST OHIO

CITY           SKY/WX    TMP DP  RH WIND       PRES   REMARKS
DEFIANCE       CLOUDY    30  23  75 W8        29.60F WCI  22
FINDLAY        CLOUDY    29  24  82 W15       29.58F WCI  18
TOLEDO EXPRESS CLOUDY    29  25  85 W12       29.56F WCI  19
TOLEDO EXEC    CLOUDY    31  25  78 W16       29.57F WCI  20
LIMA           CLOUDY    27  23  85 W15       29.60F WCI  15
$$

OHZ009>014-019>023-028>033-038-089-091000-
   NORTHEAST OHIO

CITY           SKY/WX    TMP DP  RH WIND       PRES   REMARKS
CLE-HOPKINS    CLOUDY    31  28  89 SW8       29.57S WCI  23
CLE-LAKEFRONT  CLOUDY    33  30  88 SW10      29.54F WCI  25
CUY CO. ARPT   NOT AVBL
LORAIN-ELYRIA  CLOUDY    31  27  85 W9        29.55F WCI  23
ASHTABULA      CLOUDY    33  31  92 W9        29.52F WCI  25
AKRON-CANTON   CLOUDY    30  26  85 NW13      29.53F FOG     WCI  20
WOOSTER        CLOUDY    28  26  92 W6        29.55F WCI  22
MANSFIELD      CLOUDY    29  27  92 W7        29.55F WCI  22
YOUNGSTOWN     FLURRIES  32  30  92 CALM      29.52F
$$

OHZ042-051>053-060>062-070>072-077>081-091000-
  SOUTHWEST OHIO

CITY           SKY/WX    TMP DP  RH WIND       PRES   REMARKS
CINC-COVINGTON LGT SNOW  21  16  81 W10       29.71S WCI  10
CINC-LUNKEN    LGT SNOW  22  17  81 W13       29.74F WCI  10
HAMILTON       LGT SNOW  22  19  89 SW9       29.72S FOG     WCI  12
DAYTON         LGT SNOW  23  21  92 W10       29.65S FOG     WCI  12
WRIGHT-PAT AFB FLURRIES  24  20  87 SW8       29.65F WCI  14
DAYTON GENERAL LGT SNOW  21  17  84 SW10      29.65F FOG     WCI  10
WILMINGTON     LGT SNOW  20  18  92 W17       29.65S FOG     WCI   5
$$

OHZ036-037-039>041-045>050-054>059-063>069-073>076-082>088-091000-
  CENTRAL AND SOUTHEAST OHIO

CITY           SKY/WX    TMP DP  RH WIND       PRES   REMARKS
COLUMBUS       LGT SNOW  27  24  89 W14       29.60F FOG     WCI  16
OSU AIRPORT    LGT SNOW  27  24  89 W9        29.60S FOG     WCI  18
BOLTON FIELD   LGT SNOW  26  24  92 W8        29.62S WCI  17
RICKENBACK AFB LGT SNOW  24  22  92 W13       29.63S WCI  13
NEWARK         LGT SNOW  31  26  82 MISG      29.58S
MARION         CLOUDY    29  23  78 NW10      29.59F WCI  20
LANCASTER      LGT SNOW  24  20  84 W16       29.62S FOG     WCI  11
ZANESVILLE     LGT SNOW  33  29  85 NW5       29.57S FOG     WCI  29
NEW PHILLY     CLOUDY    32  27  81 NW8       29.56F WCI  25
$$



USA.gov is the U.S. government's official web portal to all federal, state and local government web resources and services.